COSMOS 1414 (GLONASS)

Satellite information

Favourite Embed

Satellite Type and Status

PAYLOADIN ORBIT

Key statistics

Satellite COSMOS 1414 (GLONASS) at a glance.

Uptime

15769

Days in orbit

Revolutions

≈ 2.1

Per day

Orbit

MEO

Medium Earth Orbit

Inclination

64.7

Latest

Satellite identification and parameters

Extended collection of information and parameters for COSMOS 1414 (GLONASS).

Object identification

Identified? True

Debris? False

Object name: COSMOS 1414 (GLONASS)

International designator: 1982-100D

Object number (NORAD): 13606

Object ID (CCSDS): 13606

Country: COMMONWEALTH OF INDEPENDENT STATES (CIS)

Current information (Y/N): Y

RCS size: LARGE

Orbital parameters

Period: 675.727 minutes

Inclination: 64.6821 deg

SMA: 25507.89 km

Apoapsis: 19328.909 km

Periapsis: 18930.602 km

RAAN: 77.7621 deg

Eccentricy: 0.00780754

Argument of periapsis: 33.2407 deg

Mean anomaly: 65.0599 deg

Mean motion: 2.13103681 rev/day

Mean motion (dot): -0.00000015 rev/day2

B* drag term: 0.0 1/REarth

Two-line elements (TLE)

Creation date: Dec. 8, 2025, 6:20 p.m.

Reference frame: TEME

Reference center: EARTH

Epoch: Dec. 8, 2025, 9:33 a.m. UTC

TLE line 0: 0 COSMOS 1414 (GLONASS)

TLE line 1: 1 13606U 82100D 25342.39837689 -.00000015 00000-0 00000-0 0 9993

TLE line 2: 2 13606 64.6821 77.7621 0078075 33.2407 65.0599 2.13103681335832

Live tracking on map

Real-time ground track for satellite COSMOS 1414 (GLONASS).

In-orbit conjunctions

There are no conjunctions computed for COSMOS 1414 (GLONASS), at the moment. Check back to stay up to date, as we update our databases every day.

Go to all conjunctions

Associated space launch

GLONASS navigation satellite

COSMOS 1414 (GLONASS) was lifted into orbit during the mission ‘Proton | Uragan 1’, on board a Proton space rocket.

The launch took place on Oct. 12, 1982, 2:56 p.m. from 200/39 (200L).

For more information about the launch, click the button.

Launch to space Proton | Uragan 1
Proton | Uragan 1

Agency: N/A

Status: Launch Successful

Launch date: Oct. 12, 1982, 2:56 p.m. UTC

Rocket: Proton

Launch pad: 200/39 (200L)

Location: Baikonur Cosmodrome, Republic of Kazakhstan

...

Latest news about this satellite

There are no fresh news available about this satellite. Check back as we update our databases every day.


Newsletter sign-up

Weekly statistics, charts and insights to help you stay on top of the space industry.